Regional Weather Roundup
Issued by NWS

Home | Current Version | Previous Version | Graphics & Text | Print | Product List | Glossary On
Versions: 1 2 3 4 5 6 7 8 9 10 11 12 13 14 15 16 17 18 19 20 21 22 23 24 25 26 27 28 29 30 31 32 33 34 35 36 37 38 39 40 41 42 43 44 45 46 47 48 49 50
000
ASUS43 KDTX 242110
RWRMI
MICHIGAN HOURLY REGIONAL WEATHER ROUNDUP
NATIONAL WEATHER SERVICE DETROIT/PONTIAC MI
500 PM EDT WED MAY 24 2017

NOTE: "FAIR" INDICATES FEW OR NO CLOUDS BELOW 12,000 FEET WITH NO
SIGNIFICANT WEATHER AND/OR OBSTRUCTION TO VISIBILITY.

MIZ047>049-052>055-059>063-066>070-074>076-081>083-242200-
SOUTHEAST LOWER MICHIGAN

CITY           SKY/WX    TMP DP  RH WIND       PRES   REMARKS
ADRIAN         CLOUDY    61  58  90 E14       29.51F
ALMA           RAIN      61  56  83 NE10G18   29.58S
ANN ARBOR      CLOUDY    63  57  81 NE9       29.53F
BAD AXE        CLOUDY    64  54  68 NE8       29.61F
CARO           CLOUDY    67  53  60 E9G16     29.57F
DETROIT CITY   CLOUDY    61  59  93 E13       29.55S
DETROIT        CLOUDY    63  58  83 NE12      29.54S
FLINT          CLOUDY    67  51  56 E12       29.55S
GROSSE ILE     CLOUDY    63  58  83 E9        29.53R
HILLSDALE      LGT RAIN  59  54  82 E7        29.51F
HOWELL         LGT RAIN  63  52  67 E8        29.55S

CITY           SKY/WX    TMP DP  RH WIND       PRES   REMARKS
JACKSON        LGT RAIN  62  55  77 E12       29.53S
LAMBERTVILLE   RAIN      59  57  94 E7        29.51S
LANSING        CLOUDY    64  56  75 NE12      29.55S
LAPEER         PTSUNNY   65  52  62 E7        29.58S
MASON          CLOUDY    64  56  73 E12G18    29.54S
MONROE         CLOUDY    62  58  87 E13       29.52S
MT. CLEMENS    CLOUDY    63  61  94 E10       29.56S
PONTIAC        CLOUDY    64  53  67 E12G20    29.55S
PORT HOPE        N/A     53  50  89 NE7       29.62S
PORT HURON     CLOUDY    64  55  72 E8        29.58F
TRI CITIES     PTSUNNY   61  54  77 NE24      29.59S
MIDLAND        CLOUDY    63  52  67 NE12G22   29.59S
TROY           CLOUDY    65  56  73 E12       29.57S
SAGINAW HB     CLOUDY    64  52  63 N12       29.57S
$$
MIZ043>046-050>051-056>058-064>065-071>073-077>080-242200-
SOUTHWEST LOWER MICHIGAN

CITY           SKY/WX    TMP DP  RH WIND       PRES   REMARKS
BATTLE CREEK   TSTM      60  59  96 E8        29.53S
BENTON HARBOR  CLOUDY    59  54  83 VRB6      29.49S
BIG RAPIDS     CLOUDY    66  50  56 E12G22    29.57S
COLDWATER      LGT RAIN  61  59  92 E5        29.52S
FREMONT        CLOUDY    67  49  53 E6        29.54F
HOLLAND        CLOUDY    70  56  61 E14       29.52S
GRAND RAPIDS   CLOUDY    67  57  70 NE15      29.53S
IONIA          CLOUDY    62  58  89 NE12      29.54S FOG
KALAMAZOO      TSTM      61  56  83 E9G18     29.52R
LUDINGTON      CLOUDY    60  55  82 N13       29.58F
MARSHALL       CLOUDY    63  58  83 E5        29.53R
MOUNT PLEASANT CLOUDY    66  53  61 NE14G21   29.58S
MUSKEGON       PTSUNNY   70  55  59 NE8       29.53F THUNDER
SOUTH HAVEN    CLOUDY    70  56  63 NE10      29.49S
$$
MIZ016>042-242200-
NORTHERN LOWER MICHIGAN

CITY           SKY/WX    TMP DP  RH WIND       PRES   REMARKS
ALPENA         CLOUDY    62  53  72 NE12      29.69F
BEAVER ISLAND  CLOUDY    54  50  89 E10G17    29.71S
BELLAIRE       CLOUDY    65  51  60 NE14      29.65S
CADILLAC       CLOUDY    63  52  66 E14       29.62R
CHARLEVOIX     MOSUNNY   60  53  77 NE12      29.70F
FRANKFORT      CLOUDY    56  50  81 N10       29.63F
GAYLORD        CLOUDY    62  51  67 E9        29.67S
GRAYLING       CLOUDY    62  52  70 E13       29.66S
HARBOR SPRINGS MOSUNNY   60  53  79 NE14      29.68F
HOUGHTON LAKE  CLOUDY    64  51  62 NE18G24   29.64S
MANISTEE       CLOUDY    62  55  77 N8        29.60F
OSCODA         CLOUDY    58  49  70 N10       29.66R
PELLSTON       CLOUDY    58  50  75 NE10      29.70F
ROGERS CITY    CLOUDY    53  49  85 N3        29.71F
TRAVERSE CITY  PTSUNNY   63  52  67 N8        29.62F
$$
MIZ007>008-015-242200-
EASTERN UPPER MICHIGAN

CITY           SKY/WX    TMP DP  RH WIND       PRES   REMARKS
KINROSS        CLOUDY    57  52  83 E9        29.73F
MACKINAC ISLAN CLOUDY    56  53  90 E8        29.71F
NEWBERRY       CLOUDY    57  50  78 NE9       29.72F
S. S. MARIE    CLOUDY    60  51  72 NE8       29.73F
MUNISING         N/A     46  43  89 NE5       29.75S
$$
MIZ004>006-011>014-085-242200-
CENTRAL UPPER MICHIGAN

CITY           SKY/WX    TMP DP  RH WIND       PRES   REMARKS
MANISTIQUE     CLOUDY    57  51  80 SE8       29.71S
ESCANABA       CLOUDY    55  50  83 CALM      29.71F
MENOMINEE      LGT RAIN  51  49  92 E13       29.70F
SAWYER-GWINN   CLOUDY    52  45  76 NE14G20   29.75S
$$
MIZ001>003-009>011-084-242200-
WESTERN UPPER MICHIGAN

CITY           SKY/WX    TMP DP  RH WIND       PRES   REMARKS
IRON MOUNTAIN  CLOUDY    55  47  74 N9        29.71S
HOUGHTON       CLOUDY    54  44  69 E10       29.77F
COPPER HARBOR    N/A     48  39  71 CALM      29.79S
IRONWOOD       CLOUDY    56  44  64 NE10      29.75F
$$

ABBREVIATIONS USED IN REMARKS
   TC - TEMPERATURE IN CELSIUS
  WCI - WIND CHILL INDEX
   HX - HEAT INDEX
  VSB - VISIBILITY





USA.gov is the U.S. government's official web portal to all federal, state and local government web resources and services.